Flag for U.S.A. Weather past 2 weeks in Riverside, California, U.S.A.

Now
61 °F

Clear.


Feels Like: 61 °F
Forecast: 53 / 87 °F
Wind: No wind

Location: Riverside Municipal Airport

Current Time: Mar 29, 2015 at 2:56:29 AM

Latest Report: Mar 29, 2015 at 1:53 AM


Visibility: 10 mi

Pressure: 30.00 "Hg

Humidity: 52%

Dew point: 43 °F

Location of RiversideLocation

Historic Weather in Riverside — Graph

°F

Riverside temperature yesterday

Maximum temperature yesterday: 89 °F (at 2:53 PM)
Minimum temperature yesterday: 57 °F (at 6:53 AM)
Average temperature yesterday: 73 °F

Past Weeks' High & Low Weather Summary

 TemperatureHumidityPressure
High93 °F (Mar 26, 4:53 PM)96% (Mar 20, 7:53 AM)30.18 "Hg (Mar 20, 7:53 AM)
Low51 °F (Mar 24, 6:53 AM)7% (Mar 16, 1:53 PM)29.83 "Hg (Mar 16, 3:53 PM)
Average69 °F46%30.00 "Hg
* Reported Mar 14 1:53 AM — Mar 29 1:53 AM, Riverside, Weather by CustomWeather, © 2015

Note: Actual official high and low records may vary slightly from our data, if they occured in-between our weather recording intervals... More about our weather records

Advertising

Riverside weather history for previous 24 hours

 ConditionsComfort  
Time TempWeatherWind HumidityBarometerVisibility
1:53 AM
Sun, Mar 29
61 °FClear.No wind52%30.00 "Hg10 mi
12:53 AM62 °FClear.3 mph43%30.01 "Hg10 mi
11:53 PM
Sat, Mar 28
64 °FClear.No wind38%30.02 "Hg10 mi
10:53 PM69 °FClear.No wind39%30.01 "Hg10 mi
9:53 PM69 °FClear.No wind38%30.01 "Hg10 mi
8:53 PM73 °FClear.No wind32%30.00 "Hg10 mi
7:53 PM76 °FSunny.3 mph23%29.97 "Hg10 mi
6:53 PM79 °FSunny.10 mph22%29.96 "Hg10 mi
5:53 PM83 °FSunny.12 mph14%29.95 "Hg10 mi
4:53 PM85 °FSunny.14 mph14%29.94 "Hg10 mi
3:53 PM89 °FSunny.14 mph9%29.94 "Hg10 mi
2:53 PM89 °FSunny.12 mph11%29.96 "Hg10 mi
1:53 PM88 °FSunny.9 mph11%29.97 "Hg10 mi
12:53 PM88 °FSunny.8 mph12%30.00 "Hg10 mi
11:53 AM84 °FSunny.6 mph14%30.02 "Hg10 mi
10:53 AM80 °FSunny.No wind18%30.03 "Hg4 mi
9:53 AM74 °FSunny.5 mph28%30.04 "Hg10 mi
8:53 AM67 °FSunny.No wind37%30.04 "Hg10 mi
7:53 AM62 °FSunny.No wind43%30.04 "Hg10 mi
6:53 AM57 °FClear.No wind55%30.03 "Hg10 mi
5:53 AM58 °FClear.No wind54%30.02 "Hg10 mi
4:53 AM59 °FClear.No wind51%30.01 "Hg10 mi
3:53 AM60 °FClear.3 mph52%30.01 "Hg10 mi
2:53 AM62 °FClear.No wind50%30.01 "Hg10 mi
Weather by CustomWeather, © 2015

See weather overviewHow to use our weather pages